Voltar ao catálogo

COSMOS 886 DEB

AtivoUNKNOWN
NORAD 9649·DEBRIS·🇷🇺 Russia

Lançado Dec 27, 1976 de Baikonur Cosmodrome

Loading…

Próximas Passagens (próximas 24 horas)

TLE

AtualizadoSource: Space-Track

Época: Sep 13, 2026, 23:00 UTC

1 09649U 76126F   26256.95901161  .00000051  00000-0  96403-4 0  9995
2 09649  65.9287  98.1547 0918994 242.4526 108.0235 12.71761851274243

Acompanhe COSMOS 886 DEB em tempo real com AllMySat

Download on the App Store